Safmarine Limpopo — 4RBK — position and weather

sailwx.info

Track history (hours):
 
Tides and Currents Weather Stations Pressure Air Temp Water Temp Dewpoint Dewpoint Depression Visibility Wind Speed Wind Dir Waves Ship Positions

Safmarine Limpopo

Last reported at 2014-Aug-29 02:31 UTC. Time now 2014-Aug-30 00:28 UTC.
Position N 57°10' W 002°03'.

Length 140 m; draft 6 m.

Type: Ship (hazmat cat A). MMSI: 417222324.

Date/timePositionNaut miles runAvg speedWind from/ knotsBaromVisibWave heightAir tempDewpointWater temp
2014-Aug-29 02:31N 57°10' W 002°03'31311.0
2014-Aug-27 22:06N 52°43' E 002°41'6213.3
2014-Aug-27 17:27N 51°41' E 002°31'1414.9
2014-Aug-27 16:33N 51°31' E 002°15'1110.8
2014-Aug-27 15:33N 51°21' E 002°18'1312.8
2014-Aug-27 14:32N 51°23' E 002°39'1212.4
2014-Aug-27 13:32N 51°23' E 002°59'8 7.8
2014-Aug-27 12:29N 51°21' E 003°11'0 0.0
2014-Aug-27 11:29N 51°21' E 003°11'0 0.0
2014-Aug-27 10:23N 51°21' E 003°11'0 0.0
2014-Aug-27 09:11N 51°21' E 003°11'0 0.0
2014-Aug-27 08:29N 51°21' E 003°11'0 0.0
2014-Aug-27 06:23N 51°21' E 003°11'0 0.0
2014-Aug-27 05:32N 51°21' E 003°11'0 0.0
2014-Aug-27 03:29N 51°21' E 003°11'0 0.0
2014-Aug-27 02:29N 51°21' E 003°11'0 0.0
2014-Aug-27 00:17N 51°21' E 003°11'0 0.0
2014-Aug-26 23:11N 51°21' E 003°11'1 1.7
2014-Aug-26 22:30N 51°22' E 003°11'1212.5
2014-Aug-26 21:33N 51°21' E 002°52'10 9.9
2014-Aug-26 20:33N 51°24' E 002°37'0 0.1
2014-Aug-26 19:30N 51°24' E 002°37'0 0.0
2014-Aug-26 18:33N 51°24' E 002°37'0 0.4
2014-Aug-26 17:32N 51°24' E 002°37'9 9.4
2014-Aug-26 16:33N 51°20' E 002°23'1814.2
2014-Aug-26 15:17N 51°11' E 001°58'1115.3
2014-Aug-26 14:34N 51°05' E 001°44'  
Track history (hours):
 
Tides and Currents Weather Stations Pressure Air Temp Water Temp Dewpoint Dewpoint Depression Visibility Wind Speed Wind Dir Waves Ship Positions

Safmarine Limpopo

Last reported at 2014-Aug-29 02:31 UTC. Time now 2014-Aug-30 00:28 UTC.
Position N 57°10' W 002°03'.

Length 140 m; draft 6 m.

Type: Ship (hazmat cat A). MMSI: 417222324.

Date/timePositionNaut miles runAvg speedWind from/ knotsBaromVisibWave heightAir tempDewpointWater temp
2014-Aug-29 02:31N 57°10' W 002°03'31311.0
2014-Aug-27 22:06N 52°43' E 002°41'6213.3
2014-Aug-27 17:27N 51°41' E 002°31'1414.9
2014-Aug-27 16:33N 51°31' E 002°15'1110.8
2014-Aug-27 15:33N 51°21' E 002°18'1312.8
2014-Aug-27 14:32N 51°23' E 002°39'1212.4
2014-Aug-27 13:32N 51°23' E 002°59'8 7.8
2014-Aug-27 12:29N 51°21' E 003°11'0 0.0
2014-Aug-27 11:29N 51°21' E 003°11'0 0.0
2014-Aug-27 10:23N 51°21' E 003°11'0 0.0
2014-Aug-27 09:11N 51°21' E 003°11'0 0.0
2014-Aug-27 08:29N 51°21' E 003°11'0 0.0
2014-Aug-27 06:23N 51°21' E 003°11'0 0.0
2014-Aug-27 05:32N 51°21' E 003°11'0 0.0
2014-Aug-27 03:29N 51°21' E 003°11'0 0.0
2014-Aug-27 02:29N 51°21' E 003°11'0 0.0
2014-Aug-27 00:17N 51°21' E 003°11'0 0.0
2014-Aug-26 23:11N 51°21' E 003°11'1 1.7
2014-Aug-26 22:30N 51°22' E 003°11'1212.5
2014-Aug-26 21:33N 51°21' E 002°52'10 9.9
2014-Aug-26 20:33N 51°24' E 002°37'0 0.1
2014-Aug-26 19:30N 51°24' E 002°37'0 0.0
2014-Aug-26 18:33N 51°24' E 002°37'0 0.4
2014-Aug-26 17:32N 51°24' E 002°37'9 9.4
2014-Aug-26 16:33N 51°20' E 002°23'1814.2
2014-Aug-26 15:17N 51°11' E 001°58'1115.3
2014-Aug-26 14:34N 51°05' E 001°44'  

Dump ship's entire track history